Simultaneous Nadir Overpasses (SNOs) Predictions

Prediction of SNOs between AQUA and METOP-A Satellite Orbit:

Table of predicted SNOs for the next 14.0 days since TLE Epoch: 9/18/2021
Index Date (AQUA) Time (AQUA) Lat,Lon (AQUA) SZA (AQUA ) Date (METOP-A) Time (METOP-A) Lat,Lon (METOP-A) SZA (METOP-A ) Distance(km) Time Diff (sec)
1 09/20/2021 07:48:38 -77.77,-134.78 102.78 09/20/2021 07:48:20 -77.78,-134.64 102.78 3.47 18
2 09/20/2021 08:38:05 77.79, 32.81 77.26 09/20/2021 08:38:59 77.81, 32.86 77.27 3.33 54
3 09/23/2021 03:22:54 -77.76, -68.28 101.72 09/23/2021 03:22:40 -77.79, -68.24 101.69 3.43 14
4 09/23/2021 04:12:22 77.82, 99.10 78.37 09/23/2021 04:13:19 77.82, 99.24 78.36 3.27 57
5 09/25/2021 22:07:34 77.32,-167.65 78.83 09/25/2021 22:06:31 77.24,-171.61 79.01 97.34 63
6 09/25/2021 22:57:11 -77.80, -2.00 100.59 09/25/2021 22:57:00 -77.80, -1.86 100.60 3.33 11
7 09/25/2021 23:46:38 77.81, 165.56 79.45 09/25/2021 23:47:39 77.83, 165.61 79.44 2.10 61
8 09/28/2021 17:41:54 77.50,-101.97 80.13 09/28/2021 17:40:46 77.47,-104.33 80.25 57.04 68
9 09/28/2021 18:31:26 -77.80, 64.43 99.51 09/28/2021 18:31:19 -77.80, 64.51 99.51 2.08 7
10 09/28/2021 19:20:53 77.82,-128.02 80.53 09/28/2021 19:21:58 77.83,-128.02 80.53 1.83 65
11 10/01/2021 13:16:13 77.70, -36.34 81.44 10/01/2021 13:15:01 77.64, -37.21 81.45 21.63 72
12 10/01/2021 14:05:42 -77.81, 130.82 98.42 10/01/2021 14:05:39 -77.81, 130.87 98.42 1.14 3



Historial Predications of SNOs between AQUA and METOP-A
